Gonzales, LA

2:41 AM CST on December 15, 2017 (GMT -0600)
Gonzales

Weather History for KL38 - January, 2014

Change the Weather History Date:

Wednesday, January 22, 2014

  Actual Average (KBTR) Record (KBTR)
Temperature  
Mean Temperature 41 °F -  
Max Temperature 55 °F 61 °F 83 °F (1920)
Min Temperature 27 °F 41 °F 19 °F (1935)
Degree Days  
Heating Degree Days 24    
Moisture  
Dew Point 24 °F    
Average Humidity 55    
Maximum Humidity 83    
Minimum Humidity 28    
Precipitation  
Precipitation 0.00 in - - ()
Sea Level Pressure  
Sea Level Pressure 30.22 in    
Wind  
Wind Speed 1 mph (South)    
Max Wind Speed 6 mph    
Max Gust Speed -    
Visibility 10 miles    
Events      
Averages and records for this station are not official NWS values.
T = Trace of Precipitation, MM = Missing Value Source: NWS Daily Summary

Daily Weather History Graph

Daily Weather History Graph

Search for Another Location

Airport or City:

Trip Planner

Search our weather history database for the weather conditions in past years. The results will help you decide how hot, cold, wet, or windy it might be!

Date:

Astronomy

Jan. 22, 2014 Rise Set
Actual Time 6:58 AM CST 5:32 PM CST
Civil Twilight 6:33 AM CST 5:57 PM CST
Nautical Twilight 6:04 AM CST 6:26 PM CST
Astronomical Twilight 5:35 AM CST 6:55 PM CST
Moon 11:33 PM CST (1/22) 10:29 AM CST (1/22)
Length of Visible Light 11h 24m
Length of Day
10h 33m
Waning Gibbous, 65% of the Moon is Illuminated
Jan 22
Waning Gibbous
Jan 23
Last Quarter
Jan 30
New
Feb 6
First Quarter
Feb 14
Full

Hourly Weather History & Observations

Time (CST) Temp. Windchill Dew Point Humidity Pressure Visibility Wind Dir Wind Speed Gust Speed Precip Events Conditions
12:15 AM 34.3 °F 31.4 °F 19.4 °F 54% 30.24 in 10.0 mi North 3.5 mph - N/A   Clear
12:35 AM 34.3 °F - 19.2 °F 54% 30.24 in 10.0 mi North - - N/A   Clear
12:55 AM 34.0 °F - 18.5 °F 53% 30.25 in 10.0 mi North - - N/A   Clear
1:15 AM 34.2 °F - 19.0 °F 54% 30.25 in 10.0 mi North - - N/A   Clear
1:35 AM 34.7 °F 31.8 °F 18.3 °F 51% 30.24 in 10.0 mi North 3.5 mph - N/A   Clear
1:55 AM 33.8 °F - 18.7 °F 54% 30.24 in 10.0 mi Calm Calm - N/A   Clear
2:15 AM 33.4 °F 30.4 °F 19.0 °F 56% 30.24 in 10.0 mi NNE 3.5 mph - N/A   Clear
2:35 AM 32.9 °F - 19.4 °F 58% 30.24 in 10.0 mi Calm Calm - N/A   Clear
2:55 AM 32.2 °F - 19.9 °F 61% 30.24 in 10.0 mi Calm Calm - N/A   Clear
3:15 AM 30.6 °F - 21.0 °F 68% 30.24 in 10.0 mi Calm Calm - N/A   Clear
3:35 AM 31.5 °F 28.1 °F 20.8 °F 65% 30.24 in 10.0 mi North 3.5 mph - N/A   Clear
3:55 AM 32.0 °F - 20.3 °F 62% 30.24 in 10.0 mi Calm Calm - N/A   Clear
4:15 AM 31.3 °F - 20.3 °F 64% 30.24 in 10.0 mi Calm Calm - N/A   Clear
4:35 AM 31.1 °F - 20.5 °F 65% 30.23 in 10.0 mi Calm Calm - N/A   Clear
4:55 AM 30.9 °F - 20.3 °F 65% 30.24 in 10.0 mi Calm Calm - N/A   Clear
5:10 AM 30.7 °F - 20.3 °F 65% 30.24 in 10.0 mi Calm Calm - N/A   Clear
5:35 AM 28.4 °F - 23.0 °F 80% 30.24 in 10.0 mi Calm Calm - N/A   Clear
5:55 AM 28.2 °F - 21.4 °F 76% 30.24 in 10.0 mi Calm Calm - N/A   Clear
6:15 AM 27.5 °F - 22.1 °F 80% 30.24 in 10.0 mi Calm Calm - N/A   Clear
6:35 AM 27.5 °F - 22.3 °F 81% 30.25 in 10.0 mi Calm Calm - N/A   Clear
6:55 AM 27.5 °F - 22.1 °F 80% 30.25 in 10.0 mi North - - N/A   Clear
7:15 AM 27.0 °F - 22.5 °F 83% 30.25 in 10.0 mi Calm Calm - N/A   Clear
7:35 AM 27.9 °F - 22.8 °F 81% 30.26 in 10.0 mi Calm Calm - N/A   Clear
7:55 AM 29.8 °F - 24.3 °F 80% 30.26 in 10.0 mi Calm Calm - N/A   Clear
8:15 AM 32.0 °F - 22.6 °F 68% 30.26 in 10.0 mi Calm Calm - N/A   Clear
8:35 AM 33.6 °F - 22.8 °F 65% 30.27 in 10.0 mi Calm Calm - N/A   Clear
8:55 AM 35.2 °F - 23.5 °F 62% 30.27 in 10.0 mi Calm Calm - N/A   Clear
9:15 AM 36.5 °F 32.7 °F 24.1 °F 61% 30.28 in 10.0 mi SE 4.6 mph - N/A   Clear
9:35 AM 37.8 °F 35.3 °F 22.5 °F 54% 30.28 in 10.0 mi ESE 3.5 mph - N/A   Clear
9:55 AM 38.8 °F - 22.1 °F 51% 30.28 in 10.0 mi Calm Calm - N/A   Clear
10:15 AM 40.8 °F - 21.0 °F 45% 30.28 in 10.0 mi Calm Calm - N/A   Clear
10:35 AM 42.3 °F - 21.7 °F 44% 30.27 in 10.0 mi Calm Calm - N/A   Clear
10:55 AM 43.3 °F - 21.4 °F 42% 30.26 in 10.0 mi Calm Calm - N/A   Clear
11:15 AM 44.4 °F - 20.8 °F 39% 30.25 in 10.0 mi Calm Calm - N/A   Clear
11:35 AM 45.5 °F - 20.8 °F 38% 30.24 in 10.0 mi Calm Calm - N/A   Clear
11:55 AM 47.7 °F - 20.5 °F 34% 30.24 in 10.0 mi SE 3.5 mph - N/A   Clear
12:15 PM 48.4 °F - 20.1 °F 33% 30.22 in 10.0 mi Calm Calm - N/A   Clear
12:35 PM 50.0 °F - 20.7 °F 32% 30.21 in 10.0 mi Calm Calm - N/A   Clear
12:55 PM 50.9 °F - 21.9 °F 32% 30.20 in 10.0 mi South 4.6 mph - N/A   Clear
1:15 PM 52.3 °F - 22.3 °F 31% 30.18 in 10.0 mi SSW 4.6 mph - N/A   Clear
1:35 PM 52.7 °F - 22.3 °F 31% 30.18 in 10.0 mi Calm Calm - N/A   Clear
1:55 PM 53.4 °F - 22.5 °F 30% 30.18 in 10.0 mi South 3.5 mph - N/A   Clear
2:15 PM 52.9 °F - 21.9 °F 30% 30.18 in 10.0 mi Calm Calm - N/A   Clear
2:35 PM 54.1 °F - 22.5 °F 29% 30.17 in 10.0 mi South 4.6 mph - N/A   Clear
2:55 PM 54.5 °F - 21.6 °F 28% 30.17 in 10.0 mi Calm Calm - N/A   Clear
3:15 PM 55.0 °F - 22.8 °F 29% 30.17 in 10.0 mi SW 3.5 mph - N/A   Clear
3:35 PM 55.6 °F - 23.5 °F 29% 30.16 in 10.0 mi Calm Calm - N/A   Clear
3:55 PM 55.4 °F - 23.4 °F 29% 30.16 in 10.0 mi Calm Calm - N/A   Clear
4:15 PM 55.4 °F - 22.6 °F 28% 30.16 in 10.0 mi SSE 5.8 mph - N/A   Clear
4:35 PM 55.2 °F - 22.3 °F 28% 30.17 in 10.0 mi SSW 3.5 mph - N/A   Clear
4:55 PM 53.2 °F - 25.2 °F 34% 30.16 in 10.0 mi South 3.5 mph - N/A   Clear
5:15 PM 53.2 °F - 24.3 °F 32% 30.17 in 10.0 mi SSW 3.5 mph - N/A   Clear
5:35 PM 51.3 °F - 25.9 °F 37% 30.16 in 10.0 mi Calm Calm - N/A   Clear
5:55 PM 49.1 °F - 27.7 °F 44% 30.17 in 10.0 mi Calm Calm - N/A   Clear
6:15 PM 46.8 °F - 28.0 °F 48% 30.17 in 10.0 mi Calm Calm - N/A   Clear
6:35 PM 45.9 °F - 28.8 °F 51% 30.18 in 10.0 mi Calm Calm - N/A   Clear
6:50 PM 44.4 °F - 30.0 °F 57% 30.18 in 10.0 mi Calm Calm - N/A   Clear
7:15 PM 44.1 °F - 30.0 °F 58% 30.17 in 10.0 mi Calm Calm - N/A   Clear
7:35 PM 43.7 °F - 30.6 °F 60% 30.17 in 10.0 mi Calm Calm - N/A   Clear
7:55 PM 44.6 °F 43.1 °F 29.8 °F 56% 30.18 in 10.0 mi SSW 3.5 mph - N/A   Clear
8:15 PM 45.1 °F - 31.1 °F 58% 30.18 in 10.0 mi Calm Calm - N/A   Clear
8:35 PM 43.3 °F - 31.1 °F 62% 30.18 in 10.0 mi Calm Calm - N/A   Clear
8:55 PM 43.9 °F - 32.2 °F 63% 30.18 in 10.0 mi Calm Calm - N/A   Clear
9:15 PM 41.4 °F - 32.0 °F 69% 30.18 in 10.0 mi Calm Calm - N/A   Clear
9:35 PM 41.2 °F 39.2 °F 32.4 °F 71% 30.19 in 10.0 mi South 3.5 mph - N/A   Clear
9:55 PM 44.1 °F - 33.8 °F 67% 30.19 in 10.0 mi Calm Calm - N/A   Clear
10:15 PM 42.3 °F - 33.6 °F 71% 30.20 in 10.0 mi Calm Calm - N/A   Clear
10:35 PM 42.1 °F - 33.8 °F 72% 30.20 in 10.0 mi Calm Calm - N/A   Clear
10:55 PM 39.9 °F - 33.4 °F 78% 30.20 in 10.0 mi Calm Calm - N/A   Clear
11:15 PM 39.4 °F - 33.3 °F 79% 30.20 in 10.0 mi Calm Calm - N/A   Clear
11:35 PM 39.2 °F - 34.2 °F 82% 30.20 in 10.0 mi Calm Calm - N/A   Clear
11:55 PM 38.5 °F - 33.6 °F 83% 30.19 in 10.0 mi Calm Calm - N/A   Clear